Home   Weather   Warsaw   Past weeks
Flag for Poland

Past Weather in Warsaw, Poland — Yesterday and Last 2 Weeks

Now
41 °F

Sprinkles. Broken clouds.


Feels Like: 32 °F
Forecast: 48 / 32 °F
Wind: 18 mph from West

Location: Warsaw Okecie Airport

Current Time: Mar 26, 2019 at 3:47:58 pm

Latest Report: Mar 26, 2019 at 3:00 pm


Visibility: N/A

Pressure: 29.92 "Hg

Humidity: 61%

Dew Point: 28 °F

Location of WarsawLocation

Past Weather in Warsaw — Graph

°F

Warsaw Temperature Yesterday

Maximum temperature yesterday: 48 °F (at 11:00 am)
Minimum temperature yesterday: 32 °F (at 10:30 pm)
Average temperature yesterday: 41 °F

High & Low Weather Summary for the Past Weeks

 TemperatureHumidityPressure
High64 °F (Mar 17, 4:00 pm)100% (Mar 17, 4:00 am)30.48 "Hg (Mar 17, 4:00 am)
Low28 °F (Mar 12, 11:30 pm)34% (Mar 23, 2:00 pm)29.27 "Hg (Mar 16, 12:00 am)
Average43 °F72%29.96 "Hg
* Reported Mar 11 2:00 pm — Mar 26 2:30 pm, Warsaw. Weather by CustomWeather, © 2019

Note: Actual official high and low records may vary slightly from our data, if they occured in-between our weather recording intervals... More about our weather records

Advertising

Warsaw Weather History for the Previous 24 Hours

Scroll right to see more
 ConditionsComfort  
Time TempWeatherWind HumidityBarometerVisibility
2:30 pm
Tue, Mar 26
43 °FPartly sunny.21 mph53%29.92 "HgN/A
2:00 pm43 °FPartly sunny.23 mph57%29.92 "HgN/A
1:00 pm45 °FPartly sunny.17 mph61%29.92 "HgN/A
12:30 pm41 °FPartly sunny.16 mph70%29.95 "HgN/A
12:00 pm39 °FPartly sunny.15 mph81%29.98 "HgN/A
11:30 am39 °FPartly sunny.14 mph81%30.01 "HgN/A
11:00 am39 °FPartly sunny.12 mph81%30.01 "HgN/A
10:30 am37 °FPartly sunny.10 mph87%30.01 "HgN/A
10:00 am37 °FPartly sunny.8 mph81%30.04 "HgN/A
9:30 am36 °FPartly sunny.12 mph93%30.04 "HgN/A
9:00 am36 °FPartly sunny.8 mph93%30.04 "HgN/A
8:30 am36 °FPartly sunny.7 mph93%30.04 "HgN/A
8:00 am34 °FPartly sunny.8 mph93%30.07 "Hg5 mi
7:30 am34 °FPartly sunny.10 mph93%30.07 "Hg4 mi
7:00 am34 °FPartly sunny.8 mph93%30.07 "Hg4 mi
6:30 am34 °FPartly sunny.7 mph93%30.04 "Hg5 mi
6:00 am34 °FBroken clouds.7 mph93%30.04 "Hg5 mi
5:30 am32 °FPartly sunny.7 mph100%30.04 "Hg4 mi
5:00 am30 °FPassing clouds.6 mph100%30.04 "HgN/A
4:30 am32 °FPassing clouds.7 mph93%30.04 "HgN/A
4:00 am32 °FPassing clouds.8 mph93%30.04 "HgN/A
3:30 am34 °FPassing clouds.10 mph93%30.04 "HgN/A
3:00 am34 °FPassing clouds.8 mph93%30.01 "HgN/A
2:30 am32 °FPassing clouds.7 mph93%30.01 "HgN/A
2:00 am32 °FPassing clouds.6 mph93%30.01 "HgN/A
1:30 am34 °FPassing clouds.5 mph93%30.01 "HgN/A
1:00 am32 °FPassing clouds.7 mph93%30.01 "HgN/A
12:30 am34 °FClear.7 mph93%29.98 "Hg10 mi
12:00 am34 °FClear.6 mph93%29.98 "Hg10 mi
11:30 pm
Mon, Mar 25
34 °FClear.6 mph93%29.98 "Hg10 mi
11:00 pm32 °FPassing clouds.6 mph93%29.95 "HgN/A
10:30 pm32 °FClear.5 mph93%29.95 "Hg10 mi
10:00 pm34 °FClear.6 mph93%29.95 "Hg10 mi
9:30 pm36 °FClear.6 mph87%29.92 "Hg10 mi
9:00 pm36 °FPassing clouds.5 mph87%29.92 "HgN/A
8:30 pm36 °FClear.5 mph87%29.92 "Hg10 mi
8:00 pm36 °FPassing clouds.3 mph87%29.89 "HgN/A
7:30 pm39 °FPassing clouds.15 mph75%29.89 "HgN/A
7:00 pm39 °FPassing clouds.7 mph81%29.89 "HgN/A
6:30 pm39 °FPassing clouds.7 mph81%29.86 "HgN/A
6:00 pm41 °FPassing clouds.7 mph70%29.86 "HgN/A
5:30 pm41 °FPassing clouds.10 mph70%29.83 "HgN/A
5:00 pm41 °FPassing clouds.12 mph76%29.83 "HgN/A
4:30 pm41 °FScattered clouds.15 mph76%29.83 "HgN/A
4:00 pm43 °FSprinkles. Partly sunny.16 mph71%29.83 "HgN/A
3:30 pm46 °FPassing clouds.9 mph50%29.80 "HgN/A
3:00 pm48 °FPassing clouds.10 mph46%29.80 "HgN/A
Weather by CustomWeather, © 2019

See weather overview